Regional Weather Roundup
Issued by NWS

Home | Current Version | Previous Version | Graphics & Text | Print | Product List | Glossary On
Versions: 1 2 3 4 5 6 7 8 9 10 11 12 13 14 15 16 17 18 19 20 21 22 23 24 25 26 27 28 29 30 31 32 33 34 35 36 37 38 39 40 41 42 43 44 45 46 47 48 49 50
000
ASUS45 KCYS 290010
RWRWY

WYOMING REGIONAL WEATHER ROUNDUP
NATIONAL WEATHER SERVICE CHEYENNE WY
600 PM MDT THU AUG 28 2014

NOTE:  "FAIR" INDICATES FEW OR NO CLOUDS BELOW 12,000 FEET
WITH NO SIGNIFICANT WEATHER AND/OR OBSTRUCTIONS TO VISIBILITY.

WYZ001-290100-
YELLOWSTONE NATIONAL PARK

CITY           SKY/WX    TMP DP  RH WIND       PRES   REMARKS
LK YELLOWSTONE   N/A     66  38  35 W9        30.29S
6HR MIN TEMP:  58; 6HR MAX TEMP:  71;

W YELLOWSTONE  NOT AVBL

$$
WYZ002>013-054>058-071-098>099-290100-
NORTHERN WYOMING

CITY           SKY/WX    TMP DP  RH WIND       PRES   REMARKS
JACKSON        SUNNY     73  39  29 CALM      30.19F
CODY           CLOUDY    81  43  26 SE10      30.03S
GREYBULL       SUNNY     85  41  21 S6        29.95F
6HR MIN TEMP:  75; 6HR MAX TEMP:  87;

WORLAND        SUNNY     84  37  18 S3        29.98F
6HR MIN TEMP:  75; 6HR MAX TEMP:  85;

SHERIDAN       MOSUNNY   84  41  21 NW13      29.96F
6HR MIN TEMP:  83; 6HR MAX TEMP:  87;

BUFFALO        CLOUDY    77  46  33 W10       30.05S
6HR MIN TEMP:  75; 6HR MAX TEMP:  82;

GILLETTE       SUNNY     82  42  24 NW10      29.99S
6HR MIN TEMP:  78; 6HR MAX TEMP:  83;

HULETT         FAIR      81  43  26 MISG      29.99
NEWCASTLE      FAIR      79  39  24 N7        29.98

$$
WYZ014>020-022>026-101>103-290100-
CENTRAL WYOMING

CITY           SKY/WX    TMP DP  RH WIND       PRES   REMARKS
BIG PINEY      SUNNY     74  37  26 NW14      30.23F
6HR MIN TEMP:  70; 6HR MAX TEMP:  76;

PINEDALE       CLEAR     72  34  25 NW13      30.23S
DUBOIS         FAIR      72  32  23 NW13      30.21S
LANDER         SUNNY     77  44  30 SE13      30.07F
6HR MIN TEMP:  75; 6HR MAX TEMP:  81;

RIVERTON       SUNNY     79  36  21 SE9       30.09F
6HR MIN TEMP:  72; 6HR MAX TEMP:  80;

CASPER         PTSUNNY   76  39  26 N3        30.08S
6HR MIN TEMP:  76; 6HR MAX TEMP:  82;

DOUGLAS        MOSUNNY   76  49  38 S7        30.05F
6HR MIN TEMP:  71; 6HR MAX TEMP:  82;


$$
WYZ021-027>030-104>119-290100-
SOUTHERN WYOMING

CITY           SKY/WX    TMP DP  RH WIND       PRES   REMARKS
EVANSTON       MOSUNNY   72  40  31 VRB7      30.28F
6HR MIN TEMP:  65; 6HR MAX TEMP:  73;

KEMMERER       PTCLDY   N/A N/A N/A W15       30.28S
FORT BRIDGER   FAIR      73  43  33 W15       30.30S
ROCK SPRINGS   MOSUNNY   71  37  28 NW13      30.22F
6HR MIN TEMP:  63; 6HR MAX TEMP:  74;

DIXON          FAIR      73  48  41 W8        30.24F
RAWLINS        MOSUNNY   74  32  21 NW14G20   30.20S
6HR MIN TEMP:  66; 6HR MAX TEMP:  75;

SARATOGA       FAIR      63  48  59 W3        30.23S
LARAMIE        PTSUNNY   66  43  43 N9        30.21R
6HR MIN TEMP:  48; 6HR MAX TEMP:  68; 6HR PCP:  0.03;

CHEYENNE       PTSUNNY   67  47  48 NE7       30.15F
6HR MIN TEMP:  54; 6HR MAX TEMP:  69; 6HR PCP:  0.02;

TORRINGTON     PTSUNNY   69  52  54 E7        30.04F
6HR MIN TEMP:  59; 6HR MAX TEMP:  69; 6HR PCP:  0.07;

PINE BLUFFS    FAIR      63  50  63 N5        30.12S

$$



USA.gov is the U.S. government's official web portal to all federal, state and local government web resources and services.